默认 日期 大小 文件数 浏览量 最新下载 xml
com-100磁力链接相关资源由用户搜索指令自动获取,结果来源于网络,本站不存储任何资料,亦不承担任何责任,请于24小时内删除,搜索到5185个磁力,显示前4000条数据,用时66ms。
    {"371564.JPG": 341904, "Cumbias CD 1": {"16 - Fuiste - Gilda.mp3": 3996734, "17 - La luna y tu - Rafaga.mp3": 3990465, "8 - Arriba las manos - Ruta 5.mp3": 4332773, "25 - La cumbia - Porque te amo.mp3": 3713024, "13 - El minero - Los viking's 5.mp3": ...
创建时间: 2018-11-06 06:16:13 大小:394.54 MB 文件数量:101 热度:10 最近下载:2025-08-08 17:29:03
    ... , "The.100.S05E07.720p.WEB-DL.x264.DUAL-WWW.BLUDV.COM.mkv ... ": 641685270, "The.100.S05E07.720p.WEB ... .x264.DUAL-WWW.BLUDV.COM.srt": 43853, "The.100.S05E08.720p.WEB ... .x264.DUAL-WWW.BLUDV.COM.mkv": 818482052, "The.100.S05E08.720p.WEB ...
创建时间: 2018-11-06 06:49:46 大小:1.39 GB 文件数量:7 热度:9 最近下载:2023-04-09 11:20:07
    ... - Cheap Trick - Surrender.mp3": 4059329, "100 - SoftCell - Tainted Love.mp3": 3483841 ...
创建时间: 2018-11-06 09:34:34 大小:395.68 MB 文件数量:101 热度:13 最近下载:2025-05-31 04:49:02
    {"More Wallpapers.url": 10155, "100 Marvel Wallpapers [Collection Part 4]": {" ... .jpg": 218683, "99.jpg": 271596, "100.jpg": 280901, "More Wallpapers.url ...
创建时间: 2018-11-06 12:35:18 大小:26.53 MB 文件数量:102 热度:14 最近下载:2025-07-25 06:16:01
    {"tvsinpagar.url": 115, "Instrucciones.txt": 1145, "TorrentLocura.url": 118, "mispelisyseries.url": 120, "planetatorrent.com.url": 119, "Los 100 - Temporada 5 [HDTV][Capitulo 511][Castellano][www.planetatorrent.com].mkv": 633616899}
创建时间: 2018-11-06 18:54:35 大小:604.27 MB 文件数量:6 热度:13 最近下载:2025-08-21 19:03:01
    ... , "screen0004.png": 294428}, "Mob.Psycho.100.S01E10.480p.x264-mSD.mkv ... ": 157362115, "Mob.Psycho.100.S01E10.480p.x264-mSD.nfo ... , "Torrent Downloaded From www.torrenting.com.txt": 84}
创建时间: 2018-11-06 19:03:43 大小:150.76 MB 文件数量:7 热度:10 最近下载:2025-08-21 18:03:02
    {"TorrentRapid.url": 113, "DESCARGAS2020.url": 124, "TuMejorTorrent.url": 129, "Mas De 100 Mentiras - Temporada 1 [HDTV][Cap.101][Castellano][www.descargas2020.com].avi": 378681282}
创建时间: 2018-11-06 21:58:23 大小:361.14 MB 文件数量:4 热度:40 最近下载:2025-09-18 18:02:24
    ... mp3": 10283239, "Backstreet Boys - 100 Hits - Feeling Good - CD2 ... Summerlove Sensation.mp3": 7843396, "Haircut 100 - 100 Hits - Feeling Good - CD3 ... .mp3": 9283257, "Alcazar - 100 Hits - Feeling Good - CD4 ... "Uploaded Premium - www.DESCARGASMIX.com.txt": 520}
创建时间: 2018-11-06 22:15:34 大小:834.69 MB 文件数量:109 热度:11 最近下载:2025-08-09 00:39:02
    ... Downloaded From www.scenetime.com.txt": 103, "the.100.s05e10.proper.1080p ... .x264-strife.mkv": 2000916281, "the.100.s05e10.proper.1080p.web.x264 ...
创建时间: 2018-11-07 00:06:23 大小:1.87 GB 文件数量:7 热度:6 最近下载:2023-04-10 01:40:03
    ... .sériesviatorrents.com.url": 59, "Upload - torrentdosfilmes.com.png": 229126 ... "Créditos - www.torrentdosfilmes.com": {"LEIA---ME.txt": 1541 ... , "www.torrentdosfilmes.com.png": 229126, "Download ... "The.100.S03E04.720p.WEB-DL.Dual.TORRENTDOSFILMES.COM.mkv": ...
创建时间: 2018-11-07 02:38:12 大小:625.49 MB 文件数量:7 热度:5 最近下载:2023-04-10 03:00:17
    ... www.torrenting.com.txt": 86, "All.Together.Now-The.100.S01E01.480p ... ": 598852917, "All.Together.Now-The.100.S01E01.480p.x264-mSD.nfo ...
创建时间: 2018-11-07 08:35:38 大小:572.4 MB 文件数量:7 热度:9 最近下载:2025-08-22 22:23:02
    ... ": 456445, "screen0004.png": 357150}, "The.100.S04E09.HDTV.x264-SVA.mkv ... ": 315305073, "the.100.s04e09.hdtv.x264-sva.nfo ... , "Torrent Downloaded From WWW.TORRENTING.COM.txt": 84}
创建时间: 2018-11-07 09:27:49 大小:302.51 MB 文件数量:7 热度:6 最近下载:2023-04-10 05:30:02
    ... 叫痙攣地獄100連發.AVI": 1424155466, "_____padding_file_0_ ...
创建时间: 2018-11-07 10:25:47 大小:1.33 GB 文件数量:17 热度:631 最近下载:2025-10-16 21:50:02
    ... - Titanium (Feat. Sia).mp3": 9799072, "100. Hunter Hayes - Somebodys Heartbreak.mp3 ...
创建时间: 2018-11-07 15:18:05 大小:887.72 MB 文件数量:101 热度:8 最近下载:2023-04-10 08:00:21
    {"Screens": {"screen0001.png": 122668, "screen0002.png": 126146, "screen0003.png": 188985, "screen0004.png": 182798}, "The.100.S05E03.XviD-AFG.avi": 431643370, "The.100.S05E03.XviD-AFG.nfo": 1149, "Torrent Downloaded From WWW.TORRENTING.COM.txt": 84}
创建时间: 2018-11-07 16:07:29 大小:412.24 MB 文件数量:7 热度:7 最近下载:2024-07-02 22:32:02
    ... -Nizlopi - Jcb Song.mp3": 5740131, "100 -Crazy Frog - Axel F.mp3 ...
创建时间: 2018-11-07 19:15:56 大小:475.62 MB 文件数量:102 热度:5 最近下载:2023-04-10 09:20:02
    {"scene_1.mp4": 219056988, "scene_2.mp4": 166756539, "scene_3.mp4": 510018694}
创建时间: 2018-11-07 22:30:17 大小:854.33 MB 文件数量:3 热度:30 最近下载:2025-10-02 16:31:01
    ... ": 827597, "screen0004.png": 1250407}, "The.100.S05E03.720p.HEVC.x265-MeGusta ... .mkv": 325367610, "The.100.S05E03.720p.HEVC.x265-MeGusta ... , "Torrent Downloaded From WWW.TORRENTING.COM.txt": 84}
创建时间: 2018-11-08 02:04:04 大小:313.97 MB 文件数量:7 热度:4 最近下载:2023-04-10 12:10:02
    {"Leia.txt": 140, "100.Metros.2017.720p.Bluray.x264.DUAL-WWW.BLUDV.COM.mkv": 1173465009, "100.Metros.2017.720p.Bluray.x264.DUAL-WWW.BLUDV.COM.srt": 80120, "100.Metros.2017.720p.Bluray.x264.DUAL-WWW.BLUDV.COM.forced.srt": 1286}
创建时间: 2018-11-08 04:10:36 大小:1.09 GB 文件数量:4 热度:7 最近下载:2023-04-10 12:50:04
    {"www.TMasGames.com.url": 252, "Zelda Twilight Princess(compress).rar": 1388002598}
创建时间: 2018-11-08 06:09:39 大小:1.29 GB 文件数量:2 热度:8 最近下载:2025-03-11 05:39:01